| time (UTC) | temp F | wind direction | speed MPH | gust MPH | rain 1hr in | rain 24hr in | rain mn in | humidity % | barometer mb |
| 20260508134556 | 52 | 289 | 0.0 | 0.0 | 0.00 | 0.00 | 0.00 | 42 | 1007.9 |
| 20260508133102 | 52 | 307 | 0.0 | 0.0 | 0.00 | 0.00 | 0.00 | 41 | 1007.7 |
| 20260508131548 | 50 | 297 | 0.0 | 0.0 | 0.00 | 0.00 | 0.00 | 45 | 1007.5 |
| 20260508130047 | 48 | 285 | 0.0 | 0.0 | 0.00 | 0.00 | 0.00 | 46 | 1007.1 |
| 20260508124546 | 45 | 231 | 0.0 | 0.0 | 0.00 | 0.00 | 0.00 | 58 | 1006.7 |
| 20260508123014 | 41 | 200 | 0.0 | 0.0 | 0.00 | 0.00 | 0.00 | 61 | 1006.4 |
| 20260508121516 | 38 | 218 | 0.0 | 0.0 | 0.00 | 0.00 | 0.00 | 63 | 1006.4 |
| 20260508120008 | 0 | 0.0 | 0.0 | 0.00 | 0.00 | 0.00 | 1006.3 | ||
| 20260508114504 | 0 | 0.0 | 0.0 | 0.00 | 0.00 | 0.00 | 1006.6 | ||
| 20260508113102 | 0 | 0.0 | 0.0 | 0.00 | 0.00 | 0.00 | 1006.4 | ||
| 20260508111602 | 0 | 0.0 | 0.0 | 0.00 | 0.00 | 0.00 | 1006.4 | ||
| 20260508110052 | 45 | 278 | 0.0 | 0.0 | 0.00 | 0.00 | 0.00 | 57 | 1006.6 |
| 20260508104522 | 43 | 252 | 0.0 | 0.0 | 0.00 | 0.00 | 0.00 | 55 | 1006.7 |
| 20260508103019 | 44 | 263 | 0.0 | 0.0 | 0.00 | 0.00 | 0.00 | 51 | 1006.8 |
| 20260508101548 | 42 | 281 | 0.0 | 0.0 | 0.00 | 0.00 | 0.00 | 52 | 1006.9 |
| 20260508100047 | 42 | 247 | 0.0 | 0.0 | 0.00 | 0.00 | 0.00 | 50 | 1006.9 |
| 20260508094550 | 42 | 281 | 0.0 | 0.0 | 0.00 | 0.00 | 0.00 | 50 | 1006.9 |
| 20260508093044 | 43 | 231 | 0.0 | 0.0 | 0.00 | 0.00 | 0.00 | 47 | 1006.8 |
| 20260508091543 | 43 | 248 | 0.0 | 0.0 | 0.00 | 0.00 | 0.00 | 49 | 1007.1 |
| 20260508090044 | 45 | 248 | 0.0 | 0.0 | 0.00 | 0.00 | 0.00 | 45 | 1007.0 |
| 20260508084538 | 43 | 256 | 0.0 | 0.0 | 0.00 | 0.00 | 0.00 | 47 | 1007.2 |
| 20260508083037 | 43 | 238 | 0.0 | 0.0 | 0.00 | 0.00 | 0.00 | 52 | 1007.2 |
| 20260508081536 | 42 | 222 | 0.0 | 0.0 | 0.00 | 0.00 | 0.00 | 53 | 1007.4 |
| 20260508080034 | 39 | 230 | 0.0 | 0.0 | 0.00 | 0.00 | 0.00 | 53 | 1007.6 |
| 20260508074503 | 39 | 149 | 0.0 | 0.0 | 0.00 | 0.00 | 0.00 | 52 | 1007.8 |
| 20260508073001 | 38 | 215 | 0.0 | 0.0 | 0.00 | 0.00 | 0.00 | 51 | 1007.9 |
| 20260508071532 | 38 | 155 | 0.0 | 0.0 | 0.00 | 0.00 | 0.00 | 50 | 1008.0 |
| 20260508070029 | 37 | 223 | 0.0 | 0.0 | 0.00 | 0.00 | 0.00 | 55 | 1008.0 |
| 20260508064525 | 36 | 172 | 0.0 | 0.0 | 0.00 | 0.00 | 0.00 | 55 | 1008.0 |
| 20260508063024 | 37 | 200 | 0.0 | 0.0 | 0.00 | 0.00 | 0.00 | 55 | 1008.1 |
| 20260508061527 | 38 | 169 | 0.0 | 0.0 | 0.00 | 0.00 | 0.00 | 53 | 1008.1 |
| 20260508060026 | 37 | 231 | 0.0 | 0.0 | 0.00 | 0.00 | 0.00 | 64 | 1008.2 |
| 20260508054521 | 38 | 231 | 0.0 | 0.0 | 0.00 | 0.00 | 0.00 | 65 | 1008.1 |
| 20260508053020 | 39 | 231 | 0.0 | 0.0 | 0.00 | 0.00 | 0.00 | 57 | 1008.3 |
| 20260508051525 | 37 | 231 | 0.0 | 0.0 | 0.00 | 0.00 | 0.00 | 63 | 1008.4 |
| 20260508050016 | 37 | 231 | 0.0 | 0.0 | 0.00 | 0.00 | 0.00 | 60 | 1008.4 |
| 20260508044513 | 38 | 231 | 0.0 | 0.0 | 0.00 | 0.00 | 0.00 | 59 | 1008.5 |
| 20260508043016 | 37 | 231 | 0.0 | 0.0 | 0.00 | 0.00 | 0.00 | 59 | 1008.6 |
| 20260508041510 | 39 | 157 | 0.0 | 0.0 | 0.00 | 0.00 | 0.00 | 52 | 1008.8 |
| 20260508040012 | 39 | 252 | 0.0 | 0.0 | 0.00 | 0.00 | 0.00 | 57 | 1008.9 |
| 20260508034502 | 43 | 153 | 0.0 | 0.0 | 0.00 | 0.00 | 0.00 | 44 | 1008.8 |
| 20260508033059 | 44 | 152 | 0.0 | 0.0 | 0.00 | 0.00 | 0.00 | 47 | 1008.9 |
| 20260508031554 | 47 | 127 | 0.0 | 0.0 | 0.00 | 0.00 | 0.00 | 37 | 1008.9 |
| 20260508030059 | 48 | 117 | 0.0 | 0.0 | 0.00 | 0.00 | 0.00 | 43 | 1008.9 |
| 20260508024517 | 50 | 205 | 0.0 | 0.0 | 0.00 | 0.00 | 0.00 | 35 | 1008.9 |
| 20260508023018 | 51 | 46 | 0.0 | 0.0 | 0.00 | 0.00 | 0.00 | 35 | 1008.7 |
| 20260508021511 | 51 | 32 | 0.0 | 0.0 | 0.00 | 0.00 | 0.00 | 33 | 1008.6 |
| 20260508020009 | 52 | 316 | 0.0 | 0.0 | 0.00 | 0.00 | 0.00 | 33 | 1008.5 |
| 20260508014508 | 52 | 333 | 0.0 | 0.0 | 0.00 | 0.00 | 0.00 | 34 | 1008.4 |
| 20260508013006 | 53 | 331 | 0.0 | 0.0 | 0.00 | 0.00 | 0.00 | 36 | 1008.4 |
| 20260508011504 | 54 | 326 | 0.0 | 0.0 | 0.00 | 0.00 | 0.00 | 33 | 1008.3 |
| 20260508010006 | 56 | 335 | 0.0 | 0.0 | 0.00 | 0.00 | 0.00 | 31 | 1008.2 |
| 20260508004503 | 58 | 339 | 0.0 | 0.0 | 0.00 | 0.00 | 0.00 | 28 | 1008.2 |
| 20260508003002 | 59 | 339 | 0.0 | 0.0 | 0.00 | 0.00 | 0.00 | 24 | 1008.2 |
| 20260508001559 | 60 | 4 | 0.0 | 0.0 | 0.00 | 0.00 | 0.00 | 26 | 1008.2 |
| 20260508000057 | 59 | 25 | 0.0 | 0.0 | 0.00 | 0.00 | 0.00 | 25 | 1008.3 |
| 20260507234603 | 60 | 344 | 0.0 | 0.0 | 0.00 | 0.00 | 0.00 | 26 | 1008.3 |
| 20260507233055 | 60 | 18 | 0.0 | 0.0 | 0.00 | 0.00 | 0.00 | 25 | 1008.3 |
| 20260507231557 | 61 | 321 | 0.0 | 1.0 | 0.00 | 0.00 | 0.00 | 24 | 1008.3 |
| 20260507230057 | 61 | 349 | 0.0 | 0.0 | 0.00 | 0.00 | 0.00 | 24 | 1008.3 |
| 20260507224552 | 62 | 354 | 0.0 | 0.0 | 0.00 | 0.00 | 0.00 | 23 | 1008.3 |
| 20260507223055 | 62 | 344 | 0.0 | 0.0 | 0.00 | 0.00 | 0.00 | 23 | 1008.3 |
| 20260507221550 | 61 | 347 | 0.0 | 0.0 | 0.00 | 0.00 | 0.00 | 23 | 1008.6 |
| 20260507220044 | 61 | 320 | 0.0 | 0.0 | 0.00 | 0.00 | 0.00 | 22 | 1008.7 |
| 20260507214540 | 61 | 303 | 0.0 | 0.0 | 0.00 | 0.00 | 0.00 | 24 | 1008.9 |
| 20260507213038 | 60 | 340 | 0.0 | 0.0 | 0.00 | 0.00 | 0.00 | 23 | 1009.2 |
| 20260507211535 | 60 | 294 | 0.0 | 0.0 | 0.00 | 0.00 | 0.00 | 25 | 1009.3 |
| 20260507210001 | 59 | 227 | 0.0 | 0.0 | 0.00 | 0.00 | 0.00 | 25 | 1009.6 |
| 20260507204605 | 60 | 349 | 0.0 | 0.0 | 0.00 | 0.00 | 0.00 | 24 | 1009.7 |
| 20260507203106 | 60 | 302 | 0.0 | 2.0 | 0.00 | 0.00 | 0.00 | 25 | 1009.9 |
| 20260507201553 | 58 | 295 | 0.0 | 0.0 | 0.00 | 0.00 | 0.00 | 24 | 1010.1 |
| 20260507200053 | 59 | 326 | 0.0 | 0.0 | 0.00 | 0.00 | 0.00 | 26 | 1010.2 |
| 20260507194551 | 59 | 273 | 0.0 | 0.0 | 0.00 | 0.00 | 0.00 | 25 | 1010.2 |
| 20260507193053 | 58 | 304 | 0.0 | 1.0 | 0.00 | 0.00 | 0.00 | 27 | 1010.4 |
| 20260507191544 | 58 | 299 | 0.0 | 0.0 | 0.00 | 0.00 | 0.00 | 28 | 1010.4 |
| 20260507190042 | 58 | 288 | 0.0 | 0.0 | 0.00 | 0.00 | 0.00 | 30 | 1010.6 |
| 20260507184540 | 57 | 261 | 0.0 | 0.0 | 0.00 | 0.00 | 0.00 | 28 | 1010.6 |
| 20260507183039 | 56 | 288 | 0.0 | 0.0 | 0.00 | 0.00 | 0.00 | 30 | 1010.8 |
| 20260507181532 | 56 | 295 | 0.0 | 0.0 | 0.00 | 0.00 | 0.00 | 33 | 1011.0 |
| 20260507180038 | 55 | 68 | 0.0 | 0.0 | 0.00 | 0.00 | 0.00 | 29 | 1011.2 |
| 20260507174533 | 55 | 293 | 0.0 | 0.0 | 0.00 | 0.00 | 0.00 | 29 | 1011.4 |
| 20260507173102 | 55 | 333 | 0.0 | 1.0 | 0.00 | 0.00 | 0.00 | 29 | 1011.4 |
| 20260507171610 | 54 | 274 | 0.0 | 0.0 | 0.00 | 0.00 | 0.00 | 30 | 1011.5 |
| 20260507170055 | 54 | 287 | 0.0 | 0.0 | 0.00 | 0.00 | 0.00 | 29 | 1011.5 |
| 20260507164601 | 53 | 295 | 0.0 | 0.0 | 0.00 | 0.00 | 0.00 | 30 | 1011.8 |
| 20260507163043 | 53 | 297 | 0.0 | 0.0 | 0.00 | 0.00 | 0.00 | 31 | 1011.9 |
| 20260507161545 | 52 | 326 | 0.0 | 0.0 | 0.00 | 0.00 | 0.00 | 33 | 1012.0 |
| 20260507160011 | 52 | 328 | 0.0 | 0.0 | 0.00 | 0.00 | 0.00 | 34 | 1012.1 |
| 20260507154510 | 51 | 275 | 0.0 | 0.0 | 0.00 | 0.00 | 0.00 | 38 | 1012.3 |
| 20260507153011 | 50 | 294 | 0.0 | 0.0 | 0.00 | 0.00 | 0.00 | 40 | 1012.4 |
| 20260507151508 | 49 | 305 | 0.0 | 0.0 | 0.00 | 0.00 | 0.00 | 43 | 1012.5 |
| 20260507150006 | 47 | 293 | 0.0 | 0.0 | 0.00 | 0.00 | 0.00 | 46 | 1012.6 |
| 20260507144506 | 46 | 259 | 0.0 | 1.0 | 0.00 | 0.00 | 0.00 | 47 | 1012.5 |
| 20260507143038 | 45 | 257 | 0.0 | 0.0 | 0.00 | 0.00 | 0.00 | 48 | 1012.5 |
| 20260507141534 | 45 | 275 | 0.0 | 0.0 | 0.00 | 0.00 | 0.00 | 50 | 1012.5 |
| 20260507140032 | 43 | 296 | 0.0 | 0.0 | 0.00 | 0.00 | 0.00 | 52 | 1012.5 |